CAPE
0 0 0 0 0 0 0 0 0 0 0 0 0 51 55 86 139 148 143 294 55 491 884 979 917 895 802 800 861 982 1110 1203 1235 1251 1321 1414 1519 1558 1542 1461 1295 1263 1226 827 772 811 808 883 947
0 0 0 0 0 0 0 0 0 0 0 41 7 46 70 102 98 93 357 27 203 710 856 886 889 869 817 791 845 1008 1205 1223 1236 1316 1413 1481 1509 1492 1455 1355 1207 1212 1240 868 712 611 663 745 860
0 0 0 0 0 0 0 0 0 0 0 0 8 129 113 129 146 126 133 97 391 737 808 806 839 787 831 786 838 1049 1068 1083 1144 1231 1410 1474 1501 1444 1346 1200 1165 1209 1201 953 917 673 568 614 523
0 0 0 0 0 0 0 0 0 0 0 0 0 614 727 655 365 157 68 137 425 711 762 842 792 733 815 849 884 975 918 926 1012 1125 1305 1410 1398 1240 1147 1047 1164 1243 1192 935 792 514 398 260 207
0 0 0 0 0 0 0 0 0 0 0 0 2 456 936 669 343 176 87 136 331 635 743 722 754 736 837 945 922 844 782 829 984 1078 1117 1194 1198 1057 912 917 1057 1138 1194 1037 763 436 187 114 71
0 0 0 0 0 0 0 0 0 0 0 0 0 751 777 693 562 220 89 63 285 586 738 704 739 752 772 808 715 636 646 762 930 961 990 1035 888 736 747 832 899 977 974 839 495 202 96 47 28
0 0 0 0 0 0 0 0 0 0 0 0 0 800 794 519 255 113 30 185 367 574 590 645 723 757 752 701 543 481 546 693 826 876 920 747 463 462 625 703 765 724 620 419 243 64 29 26 3
0 0 0 0 0 0 0 0 0 0 0 0 0 785 961 768 972 206 162 325 424 454 533 592 696 711 671 562 448 375 471 579 697 765 780 509 308 349 479 528 616 504 353 178 122 10 0 0 0
0 0 0 0 0 0 0 0 0 0 0 0 494 1070 1013 966 1171 711 197 242 326 437 538 567 651 639 585 503 361 358 435 481 579 664 650 460 223 235 349 351 485 353 145 48 31 0 0 0 0
0 0 0 0 0 0 0 0 0 0 0 0 336 1281 1106 973 1329 806 319 212 204 318 402 505 589 626 531 505 427 313 386 382 435 497 511 333 183 125 157 224 347 257 94 7 0 0 0 0 0
0 0 0 0 0 0 0 0 0 0 0 0 62 733 790 1194 1227 767 581 475 215 182 293 428 465 512 535 512 451 284 354 346 375 352 335 251 130 89 64 112 230 152 66 2 0 0 0 0 0
0 0 0 0 0 0 0 0 0 0 0 0 0 125 792 997 1090 643 464 497 202 98 141 293 428 476 447 444 387 290 254 230 245 209 217 175 73 52 17 15 86 77 44 0 0 0 0 0 0
0 0 0 0 0 0 0 0 0 0 0 0 0 0 408 894 993 876 794 648 594 281 99 171 365 391 398 452 350 311 199 152 144 129 154 88 14 0 0 0 3 14 13 0 0 0 0 0 0
0 0 0 0 0 0 0 0 0 0 0 0 0 0 4 577 942 1034 967 860 777 766 622 151 374 388 579 364 240 261 227 118 133 98 73 54 0 0 0 0 0 0 0 0 0 0 0 0 0
0 0 0 0 0 0 0 0 0 0 0 0 0 0 0 567 800 925 865 763 714 766 719 413 162 310 395 294 171 219 203 126 87 63 16 20 0 0 0 0 0 0 0 0 0 0 0 0 0
0 0 0 0 0 0 0 0 0 0 0 0 0 0 0 0 918 974 850 798 925 946 829 543 34 89 130 268 185 130 172 126 62 50 0 0 0 0 0 0 0 0 0 0 0 0 0 0 0
0 0 0 0 0 0 0 0 0 0 0 0 0 0 0 0 403 1021 973 1138 1115 1111 1118 1103 443 0 1 32 21 16 71 73 17 29 0 0 0 0 0 0 0 0 0 0 0 0 0 0 0
0 0 0 0 0 0 0 0 0 0 0 0 0 0 0 0 131 727 745 1187 1340 1337 1296 1253 1265 809 228 0 0 0 0 4 0 0 0 0 0 0 0 0 0 0 0 0 0 0 0 0 0
0 0 0 0 0 0 0 0 0 0 0 0 0 0 0 0 2 116 315 1024 1051 1245 1349 1396 1207 1271 1120 615 0 0 0 0 0 0 0 0 3 0 0 0 0 0 0 0 0 0 0 0 0
0 0 0 0 38 33 23 0 0 0 0 0 0 0 0 0 0 81 201 255 43 1001 1161 1229 1272 1203 1175 1173 1006 194 0 0 0 0 0 0 0 0 0 0 0 0 0 7 5 50 117 12 14
0 0 0 0 19 22 18 0 0 0 0 0 0 0 0 0 0 0 0 0 0 229 1029 1115 1152 1225 1201 1226 1213 1022 617 112 89 15 15 59 5 20 8 19 18 21 8 107 113 151 141 163 134
0 0 3 2 0 0 14 0 0 0 0 0 0 0 0 0 0 0 0 0 0 0 313 1008 1042 1059 1145 1231 1184 1195 1087 738 303 286 216 217 231 133 103 295 343 275 338 217 202 353 370 209 290
1 0 0 5 0 0 20 0 0 0 0 0 0 0 0 0 0 0 0 0 0 0 0 552 983 941 947 1031 1174 1181 1187 1138 924 638 426 397 488 376 416 662 694 679 802 836 756 613 527 606 310
50 8 0 2 0 0 0 1 0 0 0 0 0 0 0 0 0 0 0 0 0 0 0 56 739 906 1019 970 913 1034 1210 1273 1047 822 780 667 641 830 723 856 1043 1048 1036 1118 1199 1202 1140 1021 861
24 43 0 0 0 0 16 10 0 0 0 0 0 0 0 0 0 0 0 0 0 3 195 97 532 1008 1125 1143 1024 903 1200 1356 1250 1056 886 810 836 793 1110 1152 1162 1193 1262 1281 1273 1367 1422 1389 1262
34 15 0 0 0 0 22 0 1 0 0 0 0 0 0 0 0 0 0 0 2 16 441 773 1174 1266 1386 1546 1401 1429 1351 1289 1191 1033 1119 1136 948 962 1047 1267 1360 1396 1371 1426 1440 1425 1504 1501 1448
42 24 3 23 20 0 39 21 2 6 2 11 6 0 0 0 0 0 0 0 4 132 774 1341 1379 1478 1564 1764 1853 1828 1784 1432 1248 965 1078 1125 902 923 783 682 1257 1441 1572 1533 1470 1454 1443 1502 1521
5 2 41 23 0 0 40 35 16 6 46 7 0 12 0 0 0 0 0 0 0 0 135 898 1428 1505 1511 1632 1825 1769 1716 1423 1132 285 806 891 1004 872 854 929 1077 1257 1440 1614 1593 1554 1522 1505 1377
5 3 1 1 7 0 0 16 27 13 38 18 7 3 6 0 0 0 0 0 0 0 1 0 93 249 456 463 648 914 1032 892 516 401 491 298 832 1201 1176 1237 1284 1368 1393 1360 1580 1588 1443 1376 1308
0 0 0 0 0 11 32 3 5 6 41 33 0 4 0 17 0 0 0 0 0 0 0 4 0 5 74 174 223 181 127 283 297 176 185 276 362 644 1076 1500 1697 1735 1881 1582 1384 1557 1590 1347 1296
CIN
-0 -0 -0 -0 -0 -0 -0 -0 -0 -0 -0 -0 -0 -85 -54 -185 -290 -345 -282 -148 -1116 -775 -504 -381 -354 -297 -305 -297 -259 -197 -142 -90 -61 -38 -21 -11 -7 -1 -1 -5 -9 -11 -10 -23 -20 -9 -9 -2 -1
-0 -0 -0 -0 -0 -0 -0 -0 -0 -0 -0 -36 -40 -43 -41 -12 -250 -294 -83 -1128 -990 -719 -545 -465 -410 -349 -324 -312 -274 -198 -125 -92 -64 -34 -13 -6 -6 -8 -11 -15 -17 -12 -9 -16 -16 -22 -13 -10 -7
-0 -0 -0 -0 -0 -0 -0 -0 -0 -0 -0 -0 -17 -30 -68 -26 -320 -274 -166 -1079 -888 -685 -578 -534 -472 -415 -364 -331 -271 -206 -167 -137 -96 -59 -20 -10 -7 -8 -13 -18 -13 -7 -6 -7 -5 -19 -22 -23 -36
-0 -0 -0 -0 -0 -0 -0 -0 -0 -0 -0 -0 -0 -72 -110 -149 -184 -206 -1030 -1023 -898 -712 -610 -554 -505 -458 -390 -341 -280 -224 -209 -186 -146 -98 -53 -25 -15 -25 -31 -43 -16 -3 -4 -6 -10 -47 -72 -101 -119
-0 -0 -0 -0 -0 -0 -0 -0 -0 -0 -0 -0 -1 -24 -47 -152 -96 -92 -1011 -997 -920 -770 -648 -622 -533 -456 -388 -331 -302 -264 -254 -210 -155 -120 -98 -73 -54 -57 -64 -59 -39 -26 -11 -14 -32 -75 -158 -220 -278
-0 -0 -0 -0 -0 -0 -0 -0 -0 -0 -0 -0 -0 -121 -46 -113 -101 -45 -975 -965 -855 -824 -674 -648 -553 -471 -420 -367 -369 -364 -320 -249 -177 -146 -128 -111 -119 -119 -98 -71 -63 -58 -48 -62 -117 -172 -229 -292 -330
-0 -0 -0 -0 -0 -0 -0 -0 -0 -0 -0 -0 -0 -109 -47 -140 -115 -84 -969 -887 -786 -746 -721 -656 -557 -481 -441 -410 -448 -429 -378 -296 -223 -186 -153 -170 -222 -210 -148 -110 -91 -90 -109 -143 -184 -256 -309 -306 -167
-0 -0 -0 -0 -0 -0 -0 -0 -0 -0 -0 -0 -0 -112 -37 -26 -53 -9 -926 -798 -734 -723 -703 -654 -569 -509 -485 -477 -503 -502 -423 -352 -282 -223 -197 -246 -296 -252 -209 -181 -138 -148 -172 -214 -240 -358 -0 -0 -0
-0 -0 -0 -0 -0 -0 -0 -0 -0 -0 -0 -0 -139 -90 -54 -38 -50 -62 -23 -794 -750 -681 -657 -630 -569 -544 -528 -511 -543 -516 -455 -399 -329 -266 -234 -270 -347 -318 -244 -233 -189 -199 -262 -374 -383 -62 -0 -0 -0
-0 -0 -0 -0 -0 -0 -0 -0 -0 -0 -0 -0 -100 -74 -64 -59 -47 -29 -41 -17 -437 -749 -696 -623 -574 -542 -542 -516 -521 -543 -483 -449 -390 -337 -300 -338 -383 -399 -347 -284 -212 -229 -328 -478 -0 -0 -0 -0 -0
-0 -0 -0 -0 -0 -0 -0 -0 -0 -0 -0 -0 -101 -81 -79 -62 -56 -30 -13 -9 -7 -818 -735 -652 -611 -570 -530 -523 -520 -572 -523 -490 -435 -414 -389 -393 -425 -428 -424 -362 -263 -287 -367 -377 -0 -0 -0 -0 -0
-0 -0 -0 -0 -0 -0 -0 -0 -0 -0 -0 -0 -0 -223 -44 -34 -26 -33 -15 -10 -20 -863 -817 -716 -630 -579 -565 -551 -559 -595 -584 -557 -509 -499 -459 -449 -487 -476 -517 -526 -365 -369 -421 -0 -0 -0 -0 -0 -0
-0 -0 -0 -0 -0 -0 -0 -0 -0 -0 -0 -0 -0 -0 -124 -19 -12 -9 -10 -13 -13 -12 -840 -783 -666 -629 -598 -562 -592 -598 -627 -628 -595 -558 -507 -525 -587 -0 -0 -0 -337 -479 -520 -0 -0 -0 -0 -0 -0
-0 -0 -0 -0 -0 -0 -0 -0 -0 -0 -0 -0 -0 -0 -44 -66 -13 -11 -14 -24 -29 -20 -18 -784 -663 -629 -534 -621 -674 -645 -633 -675 -625 -608 -594 -562 -0 -0 -0 -0 -0 -0 -0 -0 -0 -0 -0 -0 -0
-0 -0 -0 -0 -0 -0 -0 -0 -0 -0 -0 -0 -0 -0 -0 -84 -27 -17 -20 -44 -52 -45 -35 -33 -788 -688 -622 -660 -708 -677 -668 -676 -667 -665 -675 -622 -0 -0 -0 -0 -0 -0 -0 -0 -0 -0 -0 -0 -0
-0 -0 -0 -0 -0 -0 -0 -0 -0 -0 -0 -0 -0 -0 -0 -0 -45 -26 -43 -75 -39 -51 -60 -53 -805 -803 -763 -685 -694 -702 -659 -650 -678 -679 -0 -0 -0 -0 -0 -0 -0 -0 -0 -0 -0 -0 -0 -0 -0
-0 -0 -0 -0 -0 -0 -0 -0 -0 -0 -0 -0 -0 -0 -0 -0 -38 -20 -20 -43 -45 -37 -24 -36 -95 -0 -94 -804 -768 -758 -670 -654 -660 -712 -0 -0 -0 -0 -0 -0 -0 -0 -0 -0 -0 -0 -0 -0 -0
-0 -0 -0 -0 -0 -0 -0 -0 -0 -0 -0 -0 -0 -0 -0 -0 -36 -16 -21 -42 -31 -41 -40 -26 -24 -67 -150 -0 -0 -0 -0 -722 -0 -0 -0 -0 -0 -0 -0 -0 -0 -0 -0 -0 -0 -0 -0 -0 -0
-0 -0 -0 -0 -0 -0 -0 -0 -0 -0 -0 -0 -0 -0 -0 -0 -1 -40 -26 -25 -51 -37 -58 -36 -49 -37 -47 -112 -0 -0 -0 -0 -0 -0 -0 -0 -447 -0 -0 -0 -0 -0 -0 -0 -0 -0 -0 -0 -0
-0 -0 -0 -0 -13 -16 -3 -0 -0 -0 -0 -0 -0 -0 -0 -0 -0 -6 -15 -16 -42 -213 -201 -95 -76 -72 -63 -50 -64 -41 -0 -0 -0 -0 -0 -0 -0 -0 -0 -0 -0 -0 -7 -105 -96 -331 -261 -209 -247
-0 -0 -0 -0 -1 -0 -2 -0 -0 -0 -0 -0 -0 -0 -0 -0 -0 -0 -0 -0 -0 -196 -229 -191 -164 -99 -90 -70 -50 -42 -38 -531 -585 -391 -823 -793 -786 -758 -768 -540 -673 -596 -509 -398 -335 -282 -296 -253 -220
-0 -0 -1 -1 -0 -0 -2 -0 -0 -0 -0 -0 -0 -0 -0 -0 -0 -0 -0 -0 -0 -0 -275 -264 -236 -163 -145 -94 -73 -39 -26 -35 -362 -631 -652 -439 -437 -639 -425 -317 -265 -269 -266 -317 -404 -261 -235 -235 -227
-0 -0 -0 -4 -0 -0 -2 -0 -0 -0 -0 -0 -0 -0 -0 -0 -0 -0 -0 -0 -0 -0 -0 -282 -320 -243 -248 -196 -108 -64 -40 -32 -28 -33 -468 -402 -471 -477 -315 -233 -213 -229 -215 -203 -186 -183 -228 -188 -212
-62 -22 -0 -3 -0 -0 -0 -0 -0 -0 -0 -0 -0 -0 -0 -0 -0 -0 -0 -0 -0 -0 -0 -385 -250 -286 -314 -275 -253 -150 -66 -27 -26 -23 -21 -355 -313 -370 -333 -222 -182 -174 -171 -174 -147 -121 -116 -122 -141
-27 -5 -0 -0 -0 -0 -25 -15 -0 -0 -0 -0 -0 -0 -0 -0 -0 -0 -0 -0 -0 -220 -289 -504 -259 -264 -291 -287 -301 -271 -148 -45 -26 -247 -8 -297 -271 -300 -294 -268 -189 -175 -168 -153 -139 -124 -93 -94 -81
-5 -6 -0 -0 -0 -0 -16 -0 -1 -0 -0 -0 -0 -0 -0 -0 -0 -0 -0 -0 -515 -577 -250 -234 -212 -177 -202 -191 -236 -204 -204 -67 -41 -30 -185 -166 -194 -158 -90 -151 -178 -175 -129 -117 -103 -102 -100 -67 -68
-42 -22 -34 -17 -9 -0 -14 -28 -16 -4 -9 -18 -10 -0 -0 -0 -0 -0 -0 -0 -271 -254 -154 -125 -142 -104 -110 -85 -82 -72 -89 -113 -88 -144 -120 -91 -110 -164 -34 -32 -124 -108 -106 -87 -77 -71 -64 -45 -45
-2 -22 -12 -8 -0 -0 -14 -6 -2 -4 -2 -10 -0 -19 -12 -0 -0 -0 -0 -0 -0 -0 -195 -82 -36 -29 -35 -33 -22 -27 -37 -46 -41 -5 -21 -72 -43 -55 -60 -91 -45 -49 -91 -75 -64 -53 -58 -56 -47
-0 -3 -0 -0 -0 -0 -0 -1 -4 -2 -4 -2 -6 -6 -51 -0 -0 -0 -0 -0 -0 -0 -70 -0 -132 -83 -64 -58 -65 -49 -29 -26 -56 -56 -37 -189 -75 -22 -40 -26 -43 -37 -34 -77 -66 -83 -73 -49 -49
-0 -0 -0 -0 -0 -5 -2 -3 -11 -16 -0 -3 -16 -0 -0 -0 -0 -0 -0 -0 -0 -0 -4 -93 -25 -91 -58 -34 -34 -47 -111 -50 -37 -51 -125 -126 -95 -63 -40 -23 -15 -24 -8 -24 -44 -29 -51 -43 -35
Wind_Speed
nan nan nan nan nan nan nan nan nan nan nan nan nan nan nan nan 19 17 11 23 nan 24 20 19 21 20 18 18 18 20 21 21 21 19 18 17 18 17 16 14 12 11 13 13 12 9 8 7 6
nan nan nan nan nan nan nan nan nan nan nan nan nan nan nan 6 nan nan 22 nan 32 25 17 17 20 20 20 19 19 19 20 21 20 20 18 17 16 15 15 15 14 12 13 15 14 12 10 8 6
nan nan nan nan nan nan nan nan nan nan nan nan nan 19 6 4 13 20 14 nan 36 26 14 14 19 18 20 20 20 20 19 20 20 20 20 18 17 16 14 11 11 11 10 14 15 14 11 7 5
nan nan nan nan nan nan nan nan nan nan nan nan nan 20 11 4 19 13 nan 32 33 26 12 14 15 17 19 20 21 21 21 19 19 19 20 19 18 18 15 13 12 12 10 11 12 12 10 6 4
nan nan nan nan nan nan nan nan nan nan nan nan nan 22 9 12 23 28 nan 30 31 21 10 12 13 14 17 20 22 22 22 21 19 18 19 19 18 17 15 14 13 12 12 12 12 10 8 7 nan
nan nan nan nan nan nan nan nan nan nan nan nan nan 29 23 19 24 25 nan nan 21 22 12 10 11 14 17 18 19 21 22 22 21 19 18 18 18 16 15 14 13 13 11 11 12 12 nan nan nan
nan nan nan nan nan nan nan nan nan nan nan nan nan 36 36 23 25 28 nan 25 24 22 19 13 10 10 14 16 17 18 20 23 22 20 18 16 17 16 15 13 13 13 12 11 11 nan nan nan nan
nan nan nan nan nan nan nan nan nan nan nan nan nan 40 34 27 29 34 35 28 27 24 22 19 15 12 11 11 15 18 19 20 23 22 18 16 14 15 14 14 13 12 12 11 11 nan nan nan nan
nan nan nan nan nan nan nan nan nan nan nan nan 49 44 38 40 38 38 37 27 25 23 21 17 15 13 13 12 12 16 19 20 20 21 21 15 9 8 10 9 12 11 9 nan nan nan nan nan nan
nan nan nan nan nan nan nan nan nan nan nan nan 53 59 50 44 37 33 30 26 23 22 18 16 14 13 13 13 13 12 13 13 14 16 17 14 11 9 9 9 11 10 nan nan nan nan nan nan nan
nan nan nan nan nan nan nan nan nan nan nan nan nan 58 49 43 39 31 28 26 24 29 25 21 16 14 13 13 14 14 13 13 12 16 17 15 14 nan nan 10 8 9 nan nan nan nan nan nan nan
nan nan nan nan nan nan nan nan nan nan nan nan nan 56 57 50 45 38 29 29 26 nan 28 26 20 17 14 15 16 16 16 16 15 15 18 16 nan nan nan nan nan nan nan nan nan nan nan nan nan
nan nan nan nan nan nan nan nan nan nan nan nan nan nan 57 53 48 48 40 38 35 28 nan 27 25 21 18 18 18 18 18 17 17 16 17 nan nan nan nan nan nan nan nan nan nan nan nan nan nan
nan nan nan nan nan nan nan nan nan nan nan nan nan nan nan 54 50 55 48 41 37 32 28 31 27 25 23 21 21 20 20 18 19 nan nan nan nan nan nan nan nan nan nan nan nan nan nan nan nan
nan nan nan nan nan nan nan nan nan nan nan nan nan nan nan 52 59 53 48 39 36 33 32 27 30 30 28 26 26 23 22 23 nan nan nan nan nan nan nan nan nan nan nan nan nan nan nan nan nan
nan nan nan nan nan nan nan nan nan nan nan nan nan nan nan nan 55 54 50 38 34 36 35 36 nan nan 31 30 31 28 27 24 nan nan nan nan nan nan nan nan nan nan nan nan nan nan nan nan nan
nan nan nan nan nan nan nan nan nan nan nan nan nan nan nan nan 57 52 51 40 34 31 37 38 36 nan nan nan nan nan nan nan nan nan nan nan nan nan nan nan nan nan nan nan nan nan nan nan nan
nan nan nan nan nan nan nan nan nan nan nan nan nan nan nan nan 54 52 53 38 37 27 25 33 39 37 35 nan nan nan nan nan nan nan nan nan nan nan nan nan nan nan nan nan nan nan nan nan nan
nan nan nan nan nan nan nan nan nan nan nan nan nan nan nan nan nan 56 56 49 42 40 38 35 35 35 43 42 nan nan nan nan nan nan nan nan nan nan nan nan nan nan nan nan nan nan nan nan nan
nan nan nan nan nan nan nan nan nan nan nan nan nan nan nan nan nan nan 57 57 nan 40 36 33 30 33 33 38 37 39 nan nan nan nan nan nan nan nan nan nan nan nan nan nan nan nan 23 nan nan
nan nan nan nan nan nan nan nan nan nan nan nan nan nan nan nan nan nan nan nan nan 36 36 32 31 35 36 35 43 48 51 50 nan nan nan nan nan nan nan nan nan nan nan 22 22 22 21 23 25
nan nan nan nan nan nan nan nan nan nan nan nan nan nan nan nan nan nan nan nan nan nan 49 41 31 38 36 39 44 43 43 41 36 36 37 37 36 36 34 31 31 33 33 27 27 27 27 28 30
nan nan nan nan nan nan nan nan nan nan nan nan nan nan nan nan nan nan nan nan nan nan nan 48 53 47 36 37 40 43 42 40 42 44 42 41 39 38 36 35 35 33 34 32 32 34 33 34 32
nan nan nan nan nan nan nan nan nan nan nan nan nan nan nan nan nan nan nan nan nan nan nan nan 51 50 45 42 44 41 40 42 46 48 49 48 48 44 41 40 36 34 35 34 37 37 37 36 36
nan nan nan nan nan nan nan nan nan nan nan nan nan nan nan nan nan nan nan nan nan nan 74 nan 57 57 55 51 47 42 41 48 45 49 49 52 49 50 44 41 40 40 36 36 41 42 39 38 38
nan nan nan nan nan nan nan nan nan nan nan nan nan nan nan nan nan nan nan nan nan nan 73 70 68 67 66 63 58 53 47 59 58 55 53 53 55 55 42 45 41 41 43 43 50 45 38 42 40
nan nan nan nan nan nan nan nan nan nan nan nan nan nan nan nan nan nan nan nan nan 86 82 78 75 70 67 68 66 65 67 70 68 65 68 67 66 61 55 39 42 40 46 45 49 55 47 46 42
nan nan nan nan nan nan nan nan nan nan nan nan nan nan nan nan nan nan nan nan nan nan 83 90 79 74 71 70 68 70 70 66 56 54 57 66 57 57 45 27 36 40 47 52 54 48 49 51 49
nan nan nan nan nan nan nan nan nan nan nan nan nan nan nan nan nan nan nan nan nan nan nan nan nan 85 79 72 71 75 74 73 70 73 67 63 53 41 36 33 33 41 50 41 47 53 54 46 46
nan nan nan nan nan nan nan nan nan nan nan nan nan nan nan nan nan nan nan nan nan nan nan nan nan nan nan 76 79 77 74 74 76 74 70 65 62 54 48 47 48 49 49 50 50 50 50 45 45
Wind_Direction
nan nan nan nan nan nan nan nan nan nan nan nan nan nan nan nan 342 350 322 320 nan 336 353 7 4 5 357 347 344 343 335 329 329 326 321 322 319 318 314 310 317 328 332 330 326 316 312 298 277
nan nan nan nan nan nan nan nan nan nan nan nan nan nan nan 18 nan nan 319 nan 314 324 347 359 358 1 358 355 349 347 344 336 331 328 325 318 314 312 311 310 314 320 331 330 317 312 306 296 289
nan nan nan nan nan nan nan nan nan nan nan nan nan 266 243 295 291 343 314 nan 309 314 338 347 346 355 354 353 357 352 347 343 339 332 328 320 311 307 305 302 300 306 319 327 320 316 315 302 288
nan nan nan nan nan nan nan nan nan nan nan nan nan 226 248 211 302 328 nan 307 309 303 319 325 335 341 349 351 352 353 352 344 342 338 330 323 317 311 308 308 311 308 304 309 316 312 310 311 293
nan nan nan nan nan nan nan nan nan nan nan nan nan 232 215 229 264 284 nan 303 307 299 297 320 325 337 341 344 345 349 349 348 343 339 334 326 321 318 312 313 317 322 313 307 308 311 308 303 nan
nan nan nan nan nan nan nan nan nan nan nan nan nan 228 227 236 255 273 nan nan 293 288 291 304 326 339 333 337 338 339 341 342 342 341 336 333 323 318 317 314 313 314 315 314 309 310 nan nan nan
nan nan nan nan nan nan nan nan nan nan nan nan nan 231 223 228 248 263 nan 264 269 269 277 287 301 321 326 333 332 331 332 333 335 338 337 333 331 322 319 319 315 311 314 321 324 nan nan nan nan
nan nan nan nan nan nan nan nan nan nan nan nan nan 236 235 241 246 249 255 251 256 257 256 274 280 294 307 319 323 328 327 326 325 329 333 330 330 331 323 319 316 319 322 322 324 nan nan nan nan
nan nan nan nan nan nan nan nan nan nan nan nan 231 232 239 257 253 251 256 249 259 261 252 260 279 283 287 299 314 322 325 322 319 319 322 320 314 311 320 316 317 318 321 nan nan nan nan nan nan
nan nan nan nan nan nan nan nan nan nan nan nan 226 231 252 257 262 265 265 271 276 280 279 261 267 278 281 291 297 298 312 311 312 312 311 303 303 296 290 302 311 312 nan nan nan nan nan nan nan
nan nan nan nan nan nan nan nan nan nan nan nan nan 240 238 254 255 250 257 277 279 266 264 274 267 269 279 284 292 282 287 295 300 313 313 292 292 nan nan 269 274 273 nan nan nan nan nan nan nan
nan nan nan nan nan nan nan nan nan nan nan nan nan 236 245 240 252 252 255 264 258 nan 269 271 276 274 277 268 291 294 287 296 300 309 310 297 nan nan nan nan nan nan nan nan nan nan nan nan nan
nan nan nan nan nan nan nan nan nan nan nan nan nan nan 251 247 241 242 242 248 252 259 nan 272 274 275 272 277 277 287 288 291 294 302 302 nan nan nan nan nan nan nan nan nan nan nan nan nan nan
nan nan nan nan nan nan nan nan nan nan nan nan nan nan nan 256 254 250 252 253 253 254 258 263 267 272 271 268 280 281 280 285 285 nan nan nan nan nan nan nan nan nan nan nan nan nan nan nan nan
nan nan nan nan nan nan nan nan nan nan nan nan nan nan nan 245 255 258 261 263 264 263 262 264 267 263 268 269 268 269 275 282 nan nan nan nan nan nan nan nan nan nan nan nan nan nan nan nan nan
nan nan nan nan nan nan nan nan nan nan nan nan nan nan nan nan 247 258 261 262 264 255 265 266 nan nan 269 270 269 268 271 275 nan nan nan nan nan nan nan nan nan nan nan nan nan nan nan nan nan
nan nan nan nan nan nan nan nan nan nan nan nan nan nan nan nan 238 243 261 266 269 259 258 265 266 nan nan nan nan nan nan nan nan nan nan nan nan nan nan nan nan nan nan nan nan nan nan nan nan
nan nan nan nan nan nan nan nan nan nan nan nan nan nan nan nan 242 242 248 253 259 262 263 267 265 266 263 nan nan nan nan nan nan nan nan nan nan nan nan nan nan nan nan nan nan nan nan nan nan
nan nan nan nan nan nan nan nan nan nan nan nan nan nan nan nan nan 248 250 248 253 256 265 266 265 268 262 260 nan nan nan nan nan nan nan nan nan nan nan nan nan nan nan nan nan nan nan nan nan
nan nan nan nan nan nan nan nan nan nan nan nan nan nan nan nan nan nan 249 256 nan 263 260 254 263 259 260 258 258 259 nan nan nan nan nan nan nan nan nan nan nan nan nan nan nan nan 269 nan nan
nan nan nan nan nan nan nan nan nan nan nan nan nan nan nan nan nan nan nan nan nan 258 255 249 250 260 259 260 250 247 249 250 nan nan nan nan nan nan nan nan nan nan nan 282 285 284 284 275 273
nan nan nan nan nan nan nan nan nan nan nan nan nan nan nan nan nan nan nan nan nan nan 253 256 251 253 255 260 261 268 263 267 270 270 270 273 282 286 288 291 292 291 291 294 288 285 285 280 277
nan nan nan nan nan nan nan nan nan nan nan nan nan nan nan nan nan nan nan nan nan nan nan 255 261 258 251 263 265 267 267 261 257 259 262 264 265 273 276 280 281 284 286 295 298 288 289 283 281
nan nan nan nan nan nan nan nan nan nan nan nan nan nan nan nan nan nan nan nan nan nan nan nan 260 256 260 261 266 271 271 262 257 259 260 263 262 266 272 273 276 279 279 286 287 289 288 290 289
nan nan nan nan nan nan nan nan nan nan nan nan nan nan nan nan nan nan nan nan nan nan 236 nan 251 257 259 258 260 264 269 262 257 256 257 259 258 256 264 267 267 268 271 269 271 276 278 281 287
nan nan nan nan nan nan nan nan nan nan nan nan nan nan nan nan nan nan nan nan nan nan 233 239 242 243 250 254 255 254 250 251 249 248 250 252 252 254 237 252 257 264 262 262 266 264 271 278 282
nan nan nan nan nan nan nan nan nan nan nan nan nan nan nan nan nan nan nan nan nan 228 234 237 241 238 234 241 249 248 247 248 250 254 250 248 251 241 253 235 256 258 269 267 263 265 268 269 275
nan nan nan nan nan nan nan nan nan nan nan nan nan nan nan nan nan nan nan nan nan nan 233 234 237 241 236 234 239 247 248 250 252 246 240 251 248 272 241 247 248 261 261 265 266 264 260 264 262
nan nan nan nan nan nan nan nan nan nan nan nan nan nan nan nan nan nan nan nan nan nan nan nan nan 238 240 236 236 243 246 247 246 250 255 259 263 265 260 259 261 268 279 266 274 270 258 262 270
nan nan nan nan nan nan nan nan nan nan nan nan nan nan nan nan nan nan nan nan nan nan nan nan nan nan nan 240 238 240 242 244 245 247 249 249 252 253 252 251 254 256 264 267 271 276 274 272 271